Regional Weather Roundup
Issued by NWS Upton, NY

Current Version | Previous Version | Text Only | Print | Product List | Glossary On
Versions: 1 2 3 4 5 6 7 8 9 10 11 12 13 14 15 16 17 18 19 20 21 22 23 24 25 26 27 28 29 30 31 32 33 34 35 36 37 38 39 40 41 42 43 44 45 46 47 48 49 50
000
ASUS41 KOKX 261005
RWROKX

REGIONAL WEATHER ROUNDUP
NATIONAL WEATHER SERVICE NEW YORK NY
600 AM EDT THU MAY 26 2016

NOTE: "FAIR" INDICATES FEW OR NO CLOUDS BELOW 12,000 FEET WITH NO
SIGNIFICANT WEATHER AND/OR OBSTRUCTIONS TO VISIBILITY.

NYZ071-072-176-178-NJZ106-104-261100-
NEW YORK CITY METRO AREA


CITY           SKY/WX    TMP DP  RH WIND       PRES   REMARKS
CENTRAL PARK   CLEAR     70  49  47 W3        30.12R
LAGUARDIA APRT MOCLDY    72  56  57 SW3       30.08R
KENNEDY INTL   MOCLDY    63  56  78 SW7       30.10R
NEWARK/LIBERTY PTCLDY    65  52  62 SW6       30.09R
BRNX BOT. GARD   N/A     70  50  49 CALM      30.09R
TETERBORO      CLEAR     64  51  62 CALM      30.08R
$$

NYZ177-179-078>081-261100-
LONG ISLAND NEW YORK

CITY           SKY/WX    TMP DP  RH WIND       PRES   REMARKS
FARMINGDALE    PTCLDY    63  54  72 CALM      30.09R
ISLIP          MOCLDY    61  54  77 CALM      30.09R
SHIRLEY        PTCLDY    58  56  93 CALM      30.10R
RIVERHEAD        N/A     57  55  94 CALM      30.08R
WESTHAMPTON    NOT AVBL
EAST HAMPTON   FAIR      53  51  92 CALM      30.08R
MONTAUK POINT    N/A     60  56  86 CALM      30.09R
$$

NYZ052-065-067-261100-
HUDSON VALLEY

CITY           SKY/WX    TMP DP  RH WIND       PRES   REMARKS
WHITE PLAINS   CLEAR     62  54  74 NW7       30.09R
NEWBURGH       NOT AVBL
MONTGOMERY     CLEAR     54  53  97 CALM      30.10R
POUGHKEEPSIE   PTCLDY    58  55  90 CALM      30.09R
ALBANY         MOCLDY    59  54  83 NE3       30.10R
$$

NJZ001-105-106-008-010-013-015-019>022-104-261100-
NEW JERSEY

CITY           SKY/WX    TMP DP  RH WIND       PRES   REMARKS
NEWARK/LIBERTY PTCLDY    65  52  62 SW6       30.09R
TETERBORO      CLEAR     64  51  62 CALM      30.08R
CALDWELL       CLEAR     59  54  83 CALM      30.10R
MORRISTOWN     CLEAR     52  50  93 CALM      30.10R
SOMERVILLE     CLEAR     54  52  93 CALM      30.09R FOG
SUSSEX         CLEAR     54  51  90 SW3       30.12R
ANDOVER          N/A     55  54  96 CALM      30.12R
TRENTON        NOT AVBL
MILLVILLE      CLEAR     54  51  90 CALM      30.13R
ATLANTIC CITY  CLEAR     63  56  78 CALM      30.13R
WRIGHTSTOWN    PTCLDY    58  54  88 CALM      30.10R
TOMS RIVER     CLOUDY    57  50  77 CALM      30.12R
BELMAR         CLEAR     65  55  70 SW7       30.12R
$$

PAZ047>061-062-071-261100-
EASTERN PENNSYLVANIA

CITY           SKY/WX    TMP DP  RH WIND       PRES   REMARKS
PHILADELPHIA   CLOUDY    64  55  72 W6        30.12R
ALLENTOWN      MOCLDY    57  53  86 NW5       30.11R
SCRANTON       CLOUDY    59  51  75 E6        30.13R
$$

CTZ002-004>006-009-010-012-RIZ004-006-007-MAZ004-011-015-261100-
SOUTHERN NEW ENGLAND
 IN CT

CITY           SKY/WX    TMP DP  RH WIND       PRES   REMARKS
BRADLEY INTL   CLOUDY    61  55  81 CALM      30.08R
HARTFORD       PTCLDY    63  57  81 CALM      30.08R
DANBURY        CLEAR     55  52  89 CALM      30.12R
WTRBRY/OXFORD    N/A     61  52  72 CALM      30.12R
BRIDGEPORT     PTCLDY    63  55  75 CALM      30.08R
MERIDEN        MOCLDY    59  56  89 CALM      30.09R
NEW HAVEN      MOCLDY    58  55  90 CALM      30.08R
CHESTER        FAIR      70  55  60 CALM      30.09S
GROTON         CLEAR     58  56  93 CALM      30.08R
WILLIMANTIC    CLOUDY    59  54  83 CALM      30.10R

 IN RI

CITY           SKY/WX    TMP DP  RH WIND       PRES   REMARKS
PROVIDENCE     PTCLDY    65  53  65 W5        30.08R
BLOCK ISLAND   CLEAR     64  52  64 W8        30.09R
WESTERLY       PTCLDY    58  53  84 CALM      30.09R

 IN MA

CITY           SKY/WX    TMP DP  RH WIND       PRES   REMARKS
BOSTON         PTCLDY    65  54  67 CALM      30.07R
WORCESTER      CLEAR     63  52  67 W8        30.11R
WESTFIELD      CLEAR     56  54  93 CALM      30.09R FOG
PROVINCETOWN   CLEAR     56  53  90 SW7       30.07R
NANTUCKET      MOCLDY    59  53  80 W6        30.07R
$$

ANZ330-335-338-340-345-350-353-355-261100-
COASTAL MARINE OBSERVATIONS


STATION/POSITION TIME  SKY/WX   TEMP    WIND        PRES    VSBY  WAVE
                                AIR SEA DIR/SP/G                  HT/PER
                 (UTC)          (F)     (DEG/KT/KT) (MB)    (MI)  (FT/S)
NY HARB ENTRANCE 0850            63 60  220/  8/  8 1018.4          2/ 8
20S FIRE ISLAND  0850            59 57  230/  8/ 10 1018.7          3/ 6
GREAT SOUTH BAY  0915            65 65  260/  6/  8   N/A
23 SSW MONTAUK P 0950            58 55  260/  8/  8 1018.5          3/ 8
15 E BARNEGAT LI 0922               55                N/A           2/11
HUDSON CANYON    0850            59 55              1019.5          3/ 9
KINGS POINT      0900            71 58              1018.0
EXECUTION ROCKS  NOT AVBL
CENTRAL LI SOUND 0900            60     270/  4/  4   N/A           0
EASTERN LI SOUND 0900            55 52  260/  4/  6   N/A
ROBBINS REEF     0900            69     250/  4/  5 1018.0
$$


>>>>>>>>>>>>>>>>>>>>>>>>>>>> KEY <<<<<<<<<<<<<<<<<<<<<<<<<<<
>                                                          <
>     SKY/WX - SKY CONDITION/PRESENT WEATHER               <
>     TMP    - TEMPERATURE IN FAHRENHEIT                   <
>     DP     - DEWPOINT IN FAHRENHEIT                      <
>     RH     - RELATIVE HUMIDITY IN PERCENT                <
>     WIND   - DIRECTION AND SPEED IN MPH                  <
>     PRES   - MEAN SEA LEVEL PRESSURE IN INCHES OF HG     <
>     WCI    - WIND CHILL INDEX                            <
>     VSB    - VISIBILITY IN MILES                         <
>     HX     - HEAT INDEX                                  <
>     TC     - TEMPERATURE IN CELSIUS                      <
>     VRB    - VARIABLE WIND DIRECTION                     <
>                                                          <
>>>>>>>>>>>>>>>>>>>>>>>>>>>> KEY <<<<<<<<<<<<<<<<<<<<<<<<<<<





USA.gov is the U.S. government's official web portal to all federal, state and local government web resources and services.